Location: Del Amo
(33.8464°N, 118.2104°W)
Time: 17:57:21
(UTC+00:00)

Vanguard 2 Rocket - Pass Details

Date: 13 September 2024
Orbit: 553 x 3298 km, 32.9° (Epoch: 11 October)

Event Time Altitude Azimuth Distance (km) Brightness Sun altitude
Rises 12:58:57 0° 276° (W) 5,727 - -8.3°
Exits shadow 13:01:07 - 276° (W) 5,242 10.1 -7.9°
Reaches altitude 10° 13:02:10 10° 276° (W) 5,017 10.0 -7.6°
Maximum altitude 13:18:23 83° 192° (SSW) 3,160 9.6 -4.3°
Drops below altitude 10° 13:38:51 10° 108° (ESE) 6,116 12.6 -0.1°
Sets 13:43:16 0° 107° (ESE) 6,975 13.0 0.8°
